GW0702 Weather Reports


Display with metric or nautical units.
time (UTC)temp
F
wind
direction
speed
MPH
gust
MPH
rain 1hr
in
rain 24hr
in
rain mn
in
humidity
%
barometer
mb
20260504035504 57 215 5.0 7.0 0.00 0.00 0.00 50 1002.1
20260504034959 58 223 5.0 9.0 0.00 0.00 0.00 50 1002.4
20260504034457 58 217 5.0 11.0 0.00 0.00 0.00 50 1002.4
20260504033954 58 229 3.0 8.0 0.00 0.00 0.00 50 1002.6
20260504033452 58 221 6.0 8.0 0.00 0.00 0.00 50 1002.7
20260504032949 57 223 7.0 9.0 0.00 0.00 0.00 51 1002.6
20260504032446 58 214 6.0 10.0 0.00 0.00 0.00 50 1002.8
20260504031942 57 201 5.0 8.0 0.00 0.00 0.00 51 1002.7
20260504031439 57 225 2.0 6.0 0.00 0.00 0.00 51 1002.8
20260504030936 58 194 3.0 7.0 0.00 0.00 0.00 50 1002.9
20260504030433 59 218 5.0 7.0 0.00 0.00 0.00 48 1002.9
20260504025929 59 214 6.0 8.0 0.00 0.00 0.00 47 1003.2
20260504025426 59 215 3.0 7.0 0.00 0.00 0.00 47 1003.0
20260504024923 60 213 5.0 9.0 0.00 0.00 0.00 45 1003.1
20260504024420 60 228 6.0 8.0 0.00 0.00 0.00 45 1003.1
20260504023917 60 223 8.0 8.0 0.00 0.00 0.00 45 1003.1
20260504023413 61 223 4.0 8.0 0.00 0.00 0.00 43 1003.1
20260504022909 61 205 6.0 7.0 0.00 0.00 0.00 43 1003.2
20260504022406 62 202 7.0 7.0 0.00 0.00 0.00 42 1003.1
20260504021902 63 242 3.0 9.0 0.00 0.00 0.00 40 1003.1
20260504021400 62 239 4.0 4.0 0.00 0.00 0.00 42 1002.9
20260504020857 62 270 1.0 3.0 0.00 0.00 0.00 43 1002.9
20260504020353 65 209 3.0 7.0 0.00 0.00 0.00 38 1003.1
20260504015849 65 235 3.0 6.0 0.00 0.00 0.00 38 1003.1
20260504015346 65 253 3.0 9.0 0.00 0.00 0.00 38 1003.1
20260504014842 66 221 6.0 8.0 0.00 0.00 0.00 38 1003.3
20260504014338 66 203 7.0 8.0 0.00 0.00 0.00 37 1003.2
20260504013836 66 216 4.0 7.0 0.00 0.00 0.00 38 1003.5
20260504013334 67 223 5.0 8.0 0.00 0.00 0.00 38 1003.5
20260504012830 67 242 4.0 8.0 0.00 0.00 0.00 37 1003.4
20260504012328 67 201 8.0 8.0 0.00 0.00 0.00 37 1003.5
20260504011825 68 202 3.0 8.0 0.00 0.00 0.00 37 1003.7
20260504011321 68 211 5.0 7.0 0.00 0.00 0.00 37 1003.9
20260504010817 68 226 4.0 9.0 0.00 0.00 0.00 37 1003.8
20260504010313 68 216 4.0 8.0 0.00 0.00 0.00 37 1004.0
20260504005810 68 205 6.0 9.0 0.00 0.00 0.00 36 1004.0
20260504005307 69 225 4.0 6.0 0.00 0.00 0.00 36 1004.3
20260504004805 69 246 4.0 10.0 0.00 0.00 0.00 35 1004.3
20260504004302 69 197 6.0 9.0 0.00 0.00 0.00 34 1004.4
20260504003758 70 213 5.0 14.0 0.00 0.00 0.00 33 1004.2
20260504003255 70 217 5.0 14.0 0.00 0.00 0.00 31 1004.6
20260504002752 71 219 11.0 16.0 0.00 0.00 0.00 31 1004.5
20260504002249 72 228 5.0 12.0 0.00 0.00 0.00 30 1004.4
20260504001746 72 208 6.0 15.0 0.00 0.00 0.00 29 1004.6
20260504001243 73 223 11.0 17.0 0.00 0.00 0.00 29 1004.7
20260504000740 73 219 7.0 17.0 0.00 0.00 0.00 29 1004.7
20260504000237 74 221 7.0 19.0 0.00 0.00 0.00 29 1004.8
20260503235735 73 212 9.0 20.0 0.00 0.00 0.00 28 1004.8
20260503235232 74 260 12.0 16.0 0.00 0.00 0.00 27 1005.0
20260503234730 75 233 13.0 25.0 0.00 0.00 0.00 27 1004.9
20260503234228 75 218 11.0 19.0 0.00 0.00 0.00 27 1004.9
20260503233725 76 211 5.0 22.0 0.00 0.00 0.00 27 1005.1
20260503233220 75 227 9.0 19.0 0.00 0.00 0.00 27 1005.2
20260503232717 75 219 8.0 14.0 0.00 0.00 0.00 27 1005.3
20260503232214 74 270 7.0 16.0 0.00 0.00 0.00 27 1005.5
20260503231713 75 222 13.0 13.0 0.00 0.00 0.00 27 1005.4
20260503231209 75 220 8.0 20.0 0.00 0.00 0.00 26 1005.5
20260503230705 75 221 7.0 20.0 0.00 0.00 0.00 26 1005.6
20260503230203 74 280 3.0 14.0 0.00 0.00 0.00 27 1005.5
20260503225700 74 220 11.0 17.0 0.00 0.00 0.00 26 1006.0
20260503225159 75 224 9.0 19.0 0.00 0.00 0.00 25 1006.0
20260503224657 76 230 11.0 22.0 0.00 0.00 0.00 24 1005.8
20260503224155 75 225 7.0 20.0 0.00 0.00 0.00 26 1006.1
20260503223653 75 225 10.0 20.0 0.00 0.00 0.00 25 1006.1
20260503223149 76 214 21.0 21.0 0.00 0.00 0.00 24 1006.5
20260503222646 75 222 9.0 12.0 0.00 0.00 0.00 25 1006.5
20260503222144 75 286 7.0 14.0 0.00 0.00 0.00 25 1006.4
20260503221642 76 218 6.0 20.0 0.00 0.00 0.00 24 1006.6
20260503221139 75 241 13.0 15.0 0.00 0.00 0.00 25 1006.6
20260503220636 74 212 9.0 20.0 0.00 0.00 0.00 25 1006.6
20260503220132 76 213 6.0 18.0 0.00 0.00 0.00 24 1006.7
20260503215630 76 238 6.0 17.0 0.00 0.00 0.00 25 1006.8
20260503215126 75 252 11.0 18.0 0.00 0.00 0.00 25 1006.8
20260503214625 75 227 6.0 21.0 0.00 0.00 0.00 25 1006.8
20260503214120 75 206 12.0 21.0 0.00 0.00 0.00 26 1006.9
20260503213615 76 188 3.0 11.0 0.00 0.00 0.00 25 1007.3
20260503213110 75 209 7.0 20.0 0.00 0.00 0.00 27 1007.4
20260503212608 75 218 7.0 25.0 0.00 0.00 0.00 27 1007.4
20260503212105 75 237 9.0 23.0 0.00 0.00 0.00 27 1007.4
20260503211603 74 215 6.0 19.0 0.00 0.00 0.00 27 1007.5
20260503211058 75 227 15.0 29.0 0.00 0.00 0.00 25 1007.8
20260503210555 75 243 6.0 12.0 0.00 0.00 0.00 26 1008.0
20260503210050 75 233 7.0 13.0 0.00 0.00 0.00 26 1008.3
20260503205547 75 217 9.0 14.0 0.00 0.00 0.00 27 1008.3
20260503205043 74 239 2.0 15.0 0.00 0.00 0.00 26 1008.4
20260503204541 74 219 12.0 24.0 0.00 0.00 0.00 25 1008.7
20260503204038 74 225 13.0 18.0 0.00 0.00 0.00 26 1008.6
20260503203535 74 245 7.0 26.0 0.00 0.00 0.00 27 1008.7
20260503203032 73 272 6.0 20.0 0.00 0.00 0.00 28 1009.0
20260503202530 74 259 17.0 18.0 0.00 0.00 0.00 28 1009.0
20260503202028 74 221 8.0 22.0 0.00 0.00 0.00 26 1009.1
20260503201526 73 207 4.0 16.0 0.00 0.00 0.00 28 1009.1
20260503201022 73 202 9.0 19.0 0.00 0.00 0.00 27 1009.1
20260503200518 74 257 8.0 16.0 0.00 0.00 0.00 30 1009.3
20260503200016 73 261 8.0 17.0 0.00 0.00 0.00 28 1009.6
20260503195513 73 214 14.0 18.0 0.00 0.00 0.00 27 1009.6
20260503195009 73 220 5.0 15.0 0.00 0.00 0.00 28 1009.9
20260503194507 73 219 13.0 20.0 0.00 0.00 0.00 27 1009.9
20260503194006 72 228 8.0 23.0 0.00 0.00 0.00 26 1009.9
20260503193502 73 221 5.0 12.0 0.00 0.00 0.00 29 1009.9
20260503192958 72 218 6.0 16.0 0.00 0.00 0.00 29 1010.1
20260503192454 72 299 4.0 15.0 0.00 0.00 0.00 29 1010.2
20260503191949 72 224 9.0 13.0 0.00 0.00 0.00 30 1010.3
20260503191448 72 216 6.0 20.0 0.00 0.00 0.00 30 1010.7
20260503190943 72 225 10.0 18.0 0.00 0.00 0.00 29 1010.7
20260503190441 72 319 9.0 11.0 0.00 0.00 0.00 28 1010.7
20260503185938 71 220 12.0 15.0 0.00 0.00 0.00 29 1010.7
20260503185434 71 222 13.0 14.0 0.00 0.00 0.00 29 1011.0
20260503184933 71 202 6.0 11.0 0.00 0.00 0.00 30 1011.0
20260503184431 70 203 6.0 19.0 0.00 0.00 0.00 30 1011.0
20260503183927 71 259 6.0 12.0 0.00 0.00 0.00 30 1011.6
20260503183423 70 355 2.0 8.0 0.00 0.00 0.00 31 1011.5
20260503182921 70 201 11.0 17.0 0.00 0.00 0.00 29 1011.8
20260503182420 71 217 9.0 13.0 0.00 0.00 0.00 30 1011.8
20260503181916 69 220 10.0 21.0 0.00 0.00 0.00 31 1011.9
20260503181413 70 232 10.0 19.0 0.00 0.00 0.00 30 1012.1
20260503180910 69 237 2.0 20.0 0.00 0.00 0.00 32 1012.2
20260503180408 69 218 12.0 12.0 0.00 0.00 0.00 31 1012.3
20260503175904 69 250 9.0 11.0 0.00 0.00 0.00 32 1012.5
20260503175403 70 233 7.0 10.0 0.00 0.00 0.00 30 1012.6
20260503174858 68 349 8.0 8.0 0.00 0.00 0.00 31 1012.6
20260503174356 69 221 8.0 11.0 0.00 0.00 0.00 32 1012.7
20260503173851 68 222 13.0 14.0 0.00 0.00 0.00 31 1013.1
20260503173348 68 273 4.0 14.0 0.00 0.00 0.00 32 1013.1
20260503172844 68 217 13.0 13.0 0.00 0.00 0.00 31 1013.2
20260503172342 69 7 4.0 12.0 0.00 0.00 0.00 33 1013.2
20260503171838 66 218 5.0 14.0 0.00 0.00 0.00 33 1013.5
20260503171335 67 203 14.0 18.0 0.00 0.00 0.00 32 1013.4
20260503170832 66 217 10.0 13.0 0.00 0.00 0.00 32 1013.7
20260503170329 66 250 8.0 13.0 0.00 0.00 0.00 32 1013.8
20260503150721 60 198 7.0 18.0 0.00 0.00 0.00 40 1015.0
20260503150217 60 204 7.0 12.0 0.00 0.00 0.00 38 1015.1
20260503140142 53 202 6.0 6.0 0.00 0.00 0.00 57 1015.8
20260503131111 44 265 3.0 7.0 0.00 0.00 0.00 68 1016.0
20260503130609 43 228 5.0 8.0 0.00 0.00 0.00 69 1016.1
20260503130106 42 198 1.0 7.0 0.00 0.00 0.00 70 1016.1
20260503110459 33 274 2.0 5.0 0.00 0.00 0.00 84 1016.1
20260503090350 39 220 5.0 5.0 0.00 0.00 0.00 74 1016.4
20260503081317 44 356 2.0 4.0 0.00 0.00 0.00 67 1015.9
20260503080814 44 358 3.0 6.0 0.00 0.00 0.00 67 1016.0
20260503080311 44 303 1.0 5.0 0.00 0.00 0.00 67 1016.1
20260503072748 44 344 4.0 6.0 0.00 0.00 0.00 69 1016.0
20260503072245 44 339 4.0 4.0 0.00 0.00 0.00 69 1015.9
20260503071741 45 335 4.0 6.0 0.00 0.00 0.00 69 1015.9
20260503071238 45 353 1.0 4.0 0.00 0.00 0.00 69 1015.8
20260503070734 45 320 5.0 5.0 0.00 0.00 0.00 69 1015.8
20260503070232 46 266 2.0 5.0 0.00 0.00 0.00 68 1015.8
20260503060151 46 10 3.0 3.0 0.00 0.00 0.00 67 1015.6
20260503054638 47 71 2.0 7.0 0.00 0.00 0.00 65 1015.5
20260503054135 47 313 5.0 7.0 0.00 0.00 0.00 65 1015.4
20260503053633 48 240 1.0 6.0 0.00 0.00 0.00 64 1015.4
20260503053132 48 345 2.0 5.0 0.00 0.00 0.00 65 1015.5
20260503052628 48 290 2.0 5.0 0.00 0.00 0.00 64 1015.2
20260503052124 48 357 3.0 5.0 0.00 0.00 0.00 63 1015.3
20260503051619 48 291 3.0 9.0 0.00 0.00 0.00 63 1015.1
20260503051118 48 329 3.0 6.0 0.00 0.00 0.00 62 1015.2
20260503050614 49 287 4.0 5.0 0.00 0.00 0.00 62 1015.2
20260503050111 49 317 4.0 5.0 0.00 0.00 0.00 61 1015.3
20260503045608 49 295 0.0 4.0 0.00 0.00 0.00 62 1015.2
20260503045105 49 257 1.0 4.0 0.00 0.00 0.00 62 1015.3
20260503044601 50 251 4.0 5.0 0.00 0.00 0.00 61 1015.1
20260503044059 50 331 3.0 4.0 0.00 0.00 0.00 61 1015.1
20260503043555 50 312 2.0 4.0 0.00 0.00 0.00 60 1015.2
20260503043052 50 340 1.0 4.0 0.00 0.00 0.00 60 1015.0
20260503042549 51 345 3.0 4.0 0.00 0.00 0.00 59 1015.3
20260503042045 51 257 1.0 4.0 0.00 0.00 0.00 58 1015.0
20260503041543 51 270 2.0 4.0 0.00 0.00 0.00 58 1014.7
20260503041040 51 220 3.0 4.0 0.00 0.00 0.00 58 1015.0
20260503040537 51 262 2.0 4.0 0.00 0.00 0.00 58 1015.1
20260503040034 51 241 2.0 3.0 0.00 0.00 0.00 58 1014.9